When you browse on this site, cookies collect data to enhance your experience and personalize the content and advertising you see.
Visit our Privacy Policy to learn more. By continuing to use the site, you agree to this use of cookies and data.
  • In Schweiz
  • Länderverzeichnis
  • Für 7 Tage
  • Wassertemperatur
  • Satellitenkarten
  • Wetterkarte
  • Widgets
  • user-avatar
    Anmelden

    Stündliche Wetter Luanda

    Heute, 25 März, Montag

    Zeit Temperatur Niederschläge Wind Luftdruck Luftfeuchtigkeit
    00:00 +29°C° 0.8 mm 3 m/S 753 mmHg 87%
    01:00 +29°C° 0 mm 1 m/S 753 mmHg 88%
    02:00 +29°C° 0.8 mm 2 m/S 752 mmHg 89%
    03:00 +29°C° 0.8 mm 2 m/S 752 mmHg 89%
    04:00 +29°C° 0.8 mm 3 m/S 752 mmHg 90%
    05:00 +29°C° 1.1 mm 2 m/S 752 mmHg 89%
    06:00 +29°C° 1.1 mm 2 m/S 752 mmHg 88%
    07:00 +29°C° 1.1 mm 2 m/S 753 mmHg 88%
    08:00 +30°C° 0.1 mm 2 m/S 753 mmHg 82%
    09:00 +31°C° 0.1 mm 2 m/S 753 mmHg 75%
    10:00 +32°C° 0.1 mm 2 m/S 754 mmHg 69%
    11:00 +34°C° 0 mm 3 m/S 753 mmHg 66%
    12:00 +34°C° 0 mm 4 m/S 753 mmHg 64%
    13:00 +35°C° 0 mm 5 m/S 752 mmHg 61%
    14:00 +34°C° 0 mm 5 m/S 752 mmHg 64%
    15:00 +34°C° 0 mm 5 m/S 751 mmHg 66%
    16:00 +33°C° 0 mm 5 m/S 751 mmHg 69%
    17:00 +32°C° 0.2 mm 5 m/S 751 mmHg 74%
    18:00 +30°C° 0.2 mm 4 m/S 752 mmHg 79%
    19:00 +29°C° 0.2 mm 3 m/S 752 mmHg 84%
    20:00 +29°C° 1.8 mm 3 m/S 753 mmHg 86%
    21:00 +29°C° 1.8 mm 3 m/S 753 mmHg 87%
    22:00 +29°C° 1.8 mm 3 m/S 754 mmHg 89%
    23:00 +28°C° 1 mm 3 m/S 753 mmHg 89%

    Morgen, 26 März, Dienstag

    Zeit Temperatur Niederschläge Wind Luftdruck Luftfeuchtigkeit
    00:00 +28°C° 1 mm 3 m/S 753 mmHg 90%
    01:00 +28°C° 1 mm 3 m/S 753 mmHg 90%
    02:00 +28°C° 0.1 mm 3 m/S 753 mmHg 90%
    03:00 +28°C° 0.1 mm 3 m/S 752 mmHg 91%
    04:00 +28°C° 0.1 mm 3 m/S 752 mmHg 91%
    05:00 +28°C° 0.2 mm 3 m/S 752 mmHg 90%
    06:00 +28°C° 0.2 mm 3 m/S 753 mmHg 90%
    07:00 +28°C° 0.2 mm 3 m/S 753 mmHg 89%
    08:00 +29°C° 0.6 mm 2 m/S 754 mmHg 85%
    09:00 +30°C° 0.6 mm 2 m/S 754 mmHg 80%
    10:00 +31°C° 0.6 mm 2 m/S 755 mmHg 75%
    11:00 +32°C° 0.9 mm 2 m/S 754 mmHg 72%
    12:00 +32°C° 0.9 mm 1 m/S 753 mmHg 68%
    13:00 +33°C° 0.9 mm 1 m/S 753 mmHg 64%
    14:00 +34°C° 0 mm 2 m/S 752 mmHg 65%
    15:00 +34°C° 0 mm 4 m/S 752 mmHg 66%
    16:00 +33°C° 0 mm 5 m/S 751 mmHg 68%
    17:00 +32°C° 0 mm 4 m/S 752 mmHg 72%
    18:00 +30°C° 0 mm 4 m/S 752 mmHg 76%
    19:00 +29°C° 0 mm 3 m/S 753 mmHg 81%
    20:00 +29°C° 0 mm 3 m/S 753 mmHg 82%
    21:00 +29°C° 0 mm 3 m/S 754 mmHg 84%
    22:00 +29°C° 0 mm 2 m/S 754 mmHg 85%
    23:00 +29°C° 0 mm 2 m/S 754 mmHg 86%

    übermorgen, 27 März, Mittwoch

    Zeit Temperatur Niederschläge Wind Luftdruck Luftfeuchtigkeit
    00:00 +28°C° 0 mm 1 m/S 754 mmHg 87%
    01:00 +28°C° 0 mm 1 m/S 753 mmHg 87%
    02:00 +28°C° 0 mm 1 m/S 753 mmHg 88%
    03:00 +28°C° 0 mm 1 m/S 753 mmHg 90%
    04:00 +27°C° 0 mm 2 m/S 752 mmHg 91%
    05:00 +27°C° 0 mm 2 m/S 753 mmHg 90%
    06:00 +27°C° 0 mm 2 m/S 753 mmHg 89%
    07:00 +27°C° 0 mm 2 m/S 754 mmHg 89%
    08:00 +28°C° 0 mm 2 m/S 754 mmHg 83%
    09:00 +30°C° 0 mm 2 m/S 755 mmHg 78%
    10:00 +31°C° 0 mm 1 m/S 755 mmHg 73%
    11:00 +32°C° 0 mm 2 m/S 754 mmHg 67%
    12:00 +34°C° 0 mm 2 m/S 754 mmHg 61%
    13:00 +36°C° 0 mm 2 m/S 753 mmHg 55%
    14:00 +35°C° 0 mm 3 m/S 753 mmHg 57%
    15:00 +35°C° 0 mm 4 m/S 752 mmHg 58%
    16:00 +35°C° 0 mm 4 m/S 751 mmHg 60%
    17:00 +33°C° 0 mm 4 m/S 752 mmHg 66%
    18:00 +32°C° 0 mm 4 m/S 753 mmHg 72%
    19:00 +30°C° 0 mm 3 m/S 753 mmHg 78%
    20:00 +29°C° 0 mm 3 m/S 754 mmHg 79%
    21:00 +29°C° 0 mm 3 m/S 754 mmHg 81%
    22:00 +29°C° 0 mm 3 m/S 755 mmHg 83%
    23:00 +29°C° 0 mm 3 m/S 755 mmHg 84%

    28 März, Donnerstag

    Zeit Temperatur Niederschläge Wind Luftdruck Luftfeuchtigkeit
    00:00 +29°C° 0 mm 3 m/S 754 mmHg 85%
    01:00 +29°C° 0 mm 3 m/S 754 mmHg 86%
    02:00 +28°C° 0 mm 3 m/S 753 mmHg 88%
    03:00 +28°C° 0 mm 4 m/S 753 mmHg 89%
    04:00 +28°C° 0 mm 4 m/S 753 mmHg 91%
    05:00 +28°C° 0 mm 4 m/S 753 mmHg 90%
    06:00 +28°C° 0 mm 4 m/S 754 mmHg 90%
    07:00 +28°C° 0 mm 4 m/S 754 mmHg 90%
    08:00 +29°C° 0 mm 3 m/S 754 mmHg 85%
    09:00 +30°C° 0 mm 3 m/S 754 mmHg 79%
    10:00 +31°C° 0 mm 3 m/S 754 mmHg 74%
    11:00 +32°C° 0 mm 2 m/S 753 mmHg 70%
    12:00 +33°C° 0 mm 1 m/S 753 mmHg 65%
    13:00 +34°C° 0 mm 1 m/S 752 mmHg 61%
    14:00 +35°C° 0 mm 2 m/S 751 mmHg 61%
    15:00 +35°C° 0 mm 2 m/S 751 mmHg 61%
    16:00 +35°C° 0 mm 3 m/S 750 mmHg 61%
    17:00 +34°C° 0 mm 3 m/S 751 mmHg 68%
    18:00 +31°C° 0 mm 3 m/S 751 mmHg 75%
    19:00 +30°C° 0 mm 3 m/S 752 mmHg 81%
    20:00 +30°C° 0 mm 3 m/S 752 mmHg 82%
    21:00 +30°C° 0 mm 3 m/S 753 mmHg 83%
    22:00 +29°C° 0 mm 3 m/S 753 mmHg 84%
    23:00 +29°C° 0 mm 3 m/S 753 mmHg 84%

    29 März, Freitag

    Zeit Temperatur Niederschläge Wind Luftdruck Luftfeuchtigkeit
    00:00 +29°C° 0 mm 3 m/S 753 mmHg 85%
    01:00 +29°C° 0 mm 3 m/S 753 mmHg 85%
    02:00 +29°C° 0 mm 3 m/S 752 mmHg 86%
    03:00 +28°C° 0 mm 3 m/S 752 mmHg 87%
    04:00 +28°C° 0 mm 3 m/S 752 mmHg 88%
    05:00 +28°C° 0 mm 3 m/S 752 mmHg 88%
    06:00 +28°C° 0 mm 3 m/S 753 mmHg 88%
    07:00 +28°C° 0 mm 3 m/S 753 mmHg 88%
    08:00 +30°C° 0 mm 3 m/S 753 mmHg 81%
    09:00 +31°C° 0 mm 2 m/S 753 mmHg 74%
    10:00 +34°C° 0 mm 2 m/S 754 mmHg 66%
    11:00 +35°C° 0 mm 2 m/S 753 mmHg 61%
    12:00 +37°C° 0 mm 2 m/S 752 mmHg 56%
    13:00 +38°C° 0 mm 2 m/S 751 mmHg 51%
    14:00 +37°C° 0.1 mm 4 m/S 751 mmHg 56%
    15:00 +36°C° 0.1 mm 5 m/S 750 mmHg 60%
    16:00 +35°C° 0.1 mm 6 m/S 750 mmHg 65%
    17:00 +34°C° 0.3 mm 6 m/S 750 mmHg 71%
    18:00 +33°C° 0.3 mm 5 m/S 751 mmHg 77%
    19:00 +30°C° 0.3 mm 4 m/S 752 mmHg 84%
    20:00 +30°C° 1.8 mm 4 m/S 752 mmHg 83%
    21:00 +30°C° 1.8 mm 3 m/S 752 mmHg 83%
    22:00 +30°C° 1.8 mm 2 m/S 753 mmHg 83%
    23:00 +30°C° 0 mm 2 m/S 753 mmHg 83%

    30 März, Samstag

    Zeit Temperatur Niederschläge Wind Luftdruck Luftfeuchtigkeit
    00:00 +30°C° 0 mm 2 m/S 752 mmHg 84%
    01:00 +29°C° 0 mm 2 m/S 752 mmHg 84%
    02:00 +29°C° 0 mm 2 m/S 752 mmHg 85%
    03:00 +29°C° 0 mm 2 m/S 752 mmHg 86%
    04:00 +29°C° 0 mm 3 m/S 751 mmHg 87%
    05:00 +29°C° 0.1 mm 2 m/S 752 mmHg 87%
    06:00 +29°C° 0.1 mm 2 m/S 752 mmHg 87%
    07:00 +29°C° 0.1 mm 2 m/S 753 mmHg 86%
    08:00 +30°C° 0 mm 3 m/S 753 mmHg 82%
    09:00 +31°C° 0 mm 3 m/S 753 mmHg 78%
    10:00 +33°C° 0 mm 4 m/S 753 mmHg 73%
    11:00 +34°C° 0 mm 3 m/S 753 mmHg 66%
    12:00 +36°C° 0 mm 2 m/S 752 mmHg 60%
    13:00 +36°C° 0 mm 1 m/S 751 mmHg 53%
    14:00 +37°C° 1.6 mm 2 m/S 751 mmHg 57%
    15:00 +36°C° 1.6 mm 3 m/S 750 mmHg 62%
    16:00 +35°C° 1.6 mm 4 m/S 750 mmHg 66%
    17:00 +34°C° 1.1 mm 3 m/S 751 mmHg 72%
    18:00 +31°C° 1.1 mm 3 m/S 751 mmHg 77%
    19:00 +30°C° 1.1 mm 3 m/S 752 mmHg 83%
    20:00 +30°C° 0.1 mm 3 m/S 752 mmHg 83%
    21:00 +30°C° 0.1 mm 4 m/S 752 mmHg 83%
    22:00 +30°C° 0.1 mm 4 m/S 752 mmHg 83%
    23:00 +29°C° 0 mm 4 m/S 752 mmHg 84%
    Mehr zeigen